When you browse on this site, cookies collect data to enhance your experience and personalize the content and advertising you see.
Visit our Privacy Policy to learn more. By continuing to use the site, you agree to this use of cookies and data.
  • In Switzerland
  • List of Countries
  • For 7 days
  • Water Temperature
  • Weather Map
  • Weather Widgets
  • user-avatar
    Login

    Hourly Weather Druzhkovka

    Today, 26 February, Wednesday

    Time Temperature Precipitation Wind Pressure Humidity
    00:00 -1°C° 0 mm 4 mps 748 mmHg 79%
    01:00 -1°C° 0 mm 4 mps 747 mmHg 80%
    02:00 -1°C° 0 mm 5 mps 747 mmHg 82%
    03:00 -1°C° 0 mm 5 mps 747 mmHg 82%
    04:00 -1°C° 0 mm 5 mps 746 mmHg 83%
    05:00 -1°C° 0 mm 6 mps 746 mmHg 83%
    06:00 -1°C° 0 mm 6 mps 745 mmHg 84%
    07:00 -1°C° 0 mm 6 mps 745 mmHg 83%
    08:00 0°C° 0 mm 7 mps 745 mmHg 82%
    09:00 +2°C° 0 mm 7 mps 745 mmHg 81%
    10:00 +2°C° 0 mm 8 mps 745 mmHg 74%
    11:00 +4°C° 0 mm 8 mps 744 mmHg 67%
    12:00 +6°C° 0 mm 9 mps 744 mmHg 60%
    13:00 +6°C° 0 mm 9 mps 743 mmHg 58%
    14:00 +7°C° 0 mm 9 mps 743 mmHg 57%
    15:00 +8°C° 0 mm 9 mps 743 mmHg 56%
    16:00 +7°C° 0 mm 9 mps 742 mmHg 58%
    17:00 +6°C° 0 mm 8 mps 742 mmHg 61%
    18:00 +5°C° 0 mm 7 mps 742 mmHg 63%
    19:00 +5°C° 0 mm 8 mps 742 mmHg 66%
    20:00 +4°C° 0 mm 8 mps 742 mmHg 69%
    21:00 +4°C° 0 mm 8 mps 742 mmHg 71%
    22:00 +2°C° 0 mm 8 mps 742 mmHg 73%
    23:00 +2°C° 0 mm 8 mps 742 mmHg 75%

    Tomorrow, 27 February, Thursday

    Time Temperature Precipitation Wind Pressure Humidity
    00:00 +3°C° 0 mm 7 mps 741 mmHg 76%
    01:00 +3°C° 0 mm 7 mps 741 mmHg 78%
    02:00 +3°C° 0 mm 6 mps 741 mmHg 80%
    03:00 +3°C° 0 mm 6 mps 741 mmHg 81%
    04:00 +2°C° 0 mm 6 mps 741 mmHg 84%
    05:00 +2°C° 0 mm 6 mps 740 mmHg 86%
    06:00 +2°C° 0 mm 6 mps 740 mmHg 88%
    07:00 +3°C° 0 mm 6 mps 740 mmHg 87%
    08:00 +4°C° 0 mm 6 mps 740 mmHg 85%
    09:00 +5°C° 0 mm 6 mps 740 mmHg 83%
    10:00 +6°C° 0 mm 7 mps 740 mmHg 78%
    11:00 +9°C° 0 mm 8 mps 740 mmHg 72%
    12:00 +11°C° 0 mm 9 mps 739 mmHg 66%
    13:00 +11°C° 0 mm 9 mps 739 mmHg 67%
    14:00 +11°C° 0 mm 8 mps 739 mmHg 67%
    15:00 +11°C° 0 mm 8 mps 739 mmHg 67%
    16:00 +11°C° 0 mm 8 mps 739 mmHg 71%
    17:00 +10°C° 0 mm 7 mps 738 mmHg 74%
    18:00 +10°C° 0 mm 7 mps 738 mmHg 77%
    19:00 +10°C° 0 mm 7 mps 738 mmHg 79%
    20:00 +9°C° 0 mm 7 mps 739 mmHg 80%
    21:00 +9°C° 0 mm 8 mps 739 mmHg 81%
    22:00 +9°C° 0 mm 7 mps 739 mmHg 82%
    23:00 +8°C° 0 mm 7 mps 739 mmHg 84%

    Day after tomorrow, 28 February, Friday

    Time Temperature Precipitation Wind Pressure Humidity
    00:00 +8°C° 0 mm 7 mps 739 mmHg 85%
    01:00 +7°C° 0 mm 8 mps 738 mmHg 82%
    02:00 +7°C° 0 mm 8 mps 738 mmHg 79%
    03:00 +7°C° 0 mm 9 mps 738 mmHg 76%
    04:00 +7°C° 0.4 mm 8 mps 737 mmHg 78%
    05:00 +6°C° 0.4 mm 8 mps 737 mmHg 81%
    06:00 +6°C° 0.4 mm 7 mps 736 mmHg 84%
    07:00 +6°C° 0.2 mm 7 mps 736 mmHg 81%
    08:00 +5°C° 0.2 mm 7 mps 737 mmHg 78%
    09:00 +4°C° 0.2 mm 8 mps 737 mmHg 75%
    10:00 +4°C° 0 mm 7 mps 737 mmHg 76%
    11:00 +4°C° 0 mm 7 mps 738 mmHg 76%
    12:00 +4°C° 0 mm 7 mps 739 mmHg 77%
    13:00 +4°C° 0.1 mm 7 mps 740 mmHg 75%
    14:00 +4°C° 0.1 mm 8 mps 741 mmHg 73%
    15:00 +4°C° 0.1 mm 8 mps 742 mmHg 70%
    16:00 +3°C° 0 mm 7 mps 743 mmHg 69%
    17:00 +3°C° 0 mm 5 mps 744 mmHg 68%
    18:00 +4°C° 0 mm 4 mps 744 mmHg 66%
    19:00 +3°C° 0 mm 4 mps 745 mmHg 68%
    20:00 +2°C° 0 mm 3 mps 746 mmHg 70%
    21:00 +1°C° 0 mm 3 mps 747 mmHg 73%
    22:00 +1°C° 0 mm 3 mps 747 mmHg 73%
    23:00 +2°C° 0 mm 2 mps 747 mmHg 73%

    29 February, Saturday

    Time Temperature Precipitation Wind Pressure Humidity
    00:00 +1°C° 0 mm 2 mps 747 mmHg 73%
    01:00 +1°C° 0 mm 2 mps 747 mmHg 74%
    02:00 +1°C° 0 mm 2 mps 747 mmHg 74%
    03:00 +1°C° 0 mm 2 mps 747 mmHg 75%
    04:00 +1°C° 0 mm 2 mps 747 mmHg 74%
    05:00 +1°C° 0 mm 2 mps 747 mmHg 74%
    06:00 +1°C° 0 mm 2 mps 747 mmHg 73%
    07:00 +2°C° 0 mm 2 mps 747 mmHg 72%
    08:00 +1°C° 0 mm 3 mps 747 mmHg 71%
    09:00 +2°C° 0 mm 3 mps 747 mmHg 69%
    10:00 +3°C° 0 mm 3 mps 747 mmHg 67%
    11:00 +4°C° 0 mm 3 mps 747 mmHg 64%
    12:00 +5°C° 0 mm 3 mps 746 mmHg 61%
    13:00 +5°C° 0 mm 4 mps 746 mmHg 62%
    14:00 +6°C° 0 mm 4 mps 746 mmHg 62%
    15:00 +6°C° 0 mm 4 mps 746 mmHg 62%
    16:00 +5°C° 0.1 mm 3 mps 746 mmHg 67%
    17:00 +5°C° 0.1 mm 3 mps 746 mmHg 71%
    18:00 +4°C° 0.1 mm 3 mps 746 mmHg 75%
    19:00 +4°C° 0.3 mm 3 mps 746 mmHg 79%
    20:00 +4°C° 0.3 mm 3 mps 746 mmHg 82%
    21:00 +3°C° 0.3 mm 4 mps 746 mmHg 86%
    22:00 +3°C° 0.3 mm 4 mps 747 mmHg 89%
    23:00 +3°C° 0.3 mm 4 mps 747 mmHg 92%

    1 March, Sunday

    Time Temperature Precipitation Wind Pressure Humidity
    00:00 +1°C° 0.3 mm 4 mps 747 mmHg 95%
    01:00 +2°C° 0.5 mm 3 mps 747 mmHg 94%
    02:00 +2°C° 0.5 mm 3 mps 747 mmHg 94%
    03:00 +2°C° 0.5 mm 3 mps 747 mmHg 93%
    04:00 +2°C° 0.1 mm 3 mps 748 mmHg 92%
    05:00 +1°C° 0.1 mm 3 mps 748 mmHg 92%
    06:00 +1°C° 0.1 mm 3 mps 749 mmHg 91%
    07:00 0°C° 0 mm 4 mps 749 mmHg 91%
    08:00 0°C° 0 mm 4 mps 750 mmHg 90%
    09:00 0°C° 0 mm 4 mps 750 mmHg 89%
    10:00 +1°C° 0 mm 5 mps 751 mmHg 87%
    11:00 +1°C° 0 mm 5 mps 751 mmHg 85%
    12:00 +1°C° 0 mm 5 mps 751 mmHg 83%
    13:00 +1°C° 0 mm 5 mps 752 mmHg 78%
    14:00 +3°C° 0 mm 4 mps 752 mmHg 74%
    15:00 +3°C° 0 mm 4 mps 752 mmHg 70%
    16:00 +3°C° 0 mm 4 mps 752 mmHg 71%
    17:00 +3°C° 0 mm 3 mps 753 mmHg 72%
    18:00 +4°C° 0 mm 2 mps 753 mmHg 73%
    19:00 +3°C° 0 mm 2 mps 753 mmHg 75%
    20:00 +3°C° 0 mm 2 mps 754 mmHg 77%
    21:00 +3°C° 0 mm 1 mps 754 mmHg 80%
    22:00 +3°C° 0 mm 1 mps 754 mmHg 82%
    23:00 +2°C° 0 mm 1 mps 755 mmHg 84%

    2 March, Monday

    Time Temperature Precipitation Wind Pressure Humidity
    00:00 +1°C° 0 mm 0 mps 755 mmHg 86%
    01:00 +2°C° 0 mm 1 mps 755 mmHg 86%
    02:00 +2°C° 0 mm 1 mps 755 mmHg 86%
    03:00 +2°C° 0 mm 1 mps 755 mmHg 87%
    04:00 +1°C° 0 mm 1 mps 755 mmHg 86%
    05:00 -1°C° 0 mm 2 mps 754 mmHg 86%
    06:00 -1°C° 0 mm 2 mps 754 mmHg 85%
    07:00 +1°C° 0 mm 2 mps 754 mmHg 83%
    08:00 +1°C° 0 mm 3 mps 754 mmHg 80%
    09:00 +1°C° 0 mm 3 mps 754 mmHg 77%
    10:00 +2°C° 0 mm 3 mps 754 mmHg 70%
    11:00 +3°C° 0 mm 3 mps 754 mmHg 63%
    12:00 +5°C° 0 mm 4 mps 754 mmHg 57%
    13:00 +5°C° 0 mm 4 mps 753 mmHg 55%
    14:00 +5°C° 0 mm 4 mps 753 mmHg 54%
    15:00 +5°C° 0 mm 4 mps 752 mmHg 53%
    16:00 +5°C° 0 mm 4 mps 752 mmHg 57%
    17:00 +4°C° 0 mm 3 mps 752 mmHg 60%
    18:00 +4°C° 0 mm 3 mps 752 mmHg 64%
    19:00 +3°C° 0 mm 3 mps 751 mmHg 65%
    20:00 +3°C° 0 mm 3 mps 751 mmHg 67%
    21:00 +2°C° 0 mm 3 mps 751 mmHg 68%
    22:00 +1°C° 0 mm 4 mps 751 mmHg 70%
    23:00 +1°C° 0 mm 4 mps 751 mmHg 71%
    Show more